Location: Noordwijk
(52.2400°N, 4.4500°E)
Time: 07:45:32
(UTC+00:00)

AO-27 - Visible Passes

Search period start: 07 December 2022 00:00
Search period end: 17 December 2022 00:00
Orbit: 786 x 796 km, 98.9° (Epoch: 06 December)

Date Brightness Start Highest point End Pass type
(mag) Time Alt. Az. Time Alt. Az. Time Alt. Az.
07 Dec 10.7 06:28:49 10° ENE 06:30:44 12° E 06:32:38 10° ESE visible
07 Dec 8.7 17:57:23 28° NNE 17:57:23 28° NNE 18:00:27 10° N visible
07 Dec 9.7 19:38:08 22° NW 19:38:08 22° NW 19:40:10 10° NNW visible
08 Dec 9.0 17:27:48 21° NE 17:27:48 21° NE 17:30:46 10° N visible
08 Dec 9.2 19:08:33 29° NNW 19:08:33 29° NNW 19:11:02 10° NNW visible
09 Dec 9.3 16:58:13 15° NE 16:58:13 15° NE 17:00:47 10° NNE visible
09 Dec 8.8 18:38:57 32° N 18:38:57 32° N 18:41:43 10° NNW visible
09 Dec 10.4 20:19:42 13° NW 20:19:42 13° NW 20:20:33 10° NW visible
10 Dec 10.5 06:39:45 10° NE 06:42:39 15° E 06:45:32 10° ESE visible
10 Dec 8.7 18:09:22 29° NNE 18:09:22 29° NNE 18:12:17 10° N visible
10 Dec 9.9 19:50:06 19° NW 19:50:06 19° NW 19:51:47 10° NNW visible
11 Dec 8.9 17:39:46 23° NNE 17:39:46 23° NNE 17:42:41 10° N visible
11 Dec 9.4 19:20:31 25° NNW 19:20:31 25° NNW 19:22:43 10° NNW visible
12 Dec 9.2 17:10:10 17° NE 17:10:10 17° NE 17:12:52 10° NNE visible
12 Dec 9.0 18:50:54 30° NNW 18:50:54 30° NNW 18:53:29 10° NNW visible
12 Dec 10.6 20:31:38 11° NW 20:31:38 11° NW 20:31:57 10° NW visible
13 Dec 10.4 06:50:59 10° NE 06:54:33 18° E 06:58:05 10° SE visible
13 Dec 9.4 16:40:33 11° NE 16:40:43 12° NE 16:42:24 10° NNE visible
13 Dec 8.8 18:21:17 30° N 18:21:17 30° N 18:24:06 10° N visible
13 Dec 10.1 20:02:02 17° NW 20:02:02 17° NW 20:03:22 10° NNW visible
14 Dec 11.0 06:24:07 10° ENE 06:24:49 10° E 06:25:30 10° E visible
14 Dec 8.8 17:51:40 26° NNE 17:51:40 26° NNE 17:54:34 10° N visible
14 Dec 9.6 19:32:25 23° NNW 19:32:25 23° NNW 19:34:25 10° NNW visible
15 Dec 9.1 17:22:03 19° NE 17:22:03 19° NE 17:24:50 10° N visible
15 Dec 9.1 19:02:48 28° NNW 19:02:48 28° NNW 19:05:14 10° NNW visible
16 Dec 10.3 07:02:22 10° NE 07:06:25 22° E 07:10:25 10° SE visible
16 Dec 9.3 16:52:25 14° NE 16:52:25 14° NE 16:54:44 10° NNE visible
16 Dec 8.8 18:33:10 30° N 18:33:10 30° N 18:35:54 10° N visible
16 Dec 10.3 20:13:54 14° NW 20:13:54 14° NW 20:14:54 10° NW visible
